Overview Statistics Trail Chart Weather Telemetry Raw packets
 

This is the latest recevied weather packets stored in our database for station/object HP1CDW-11. If no packets are shown the sender has not sent any weather packets the latest 10 day(s).

<< 20 21 22 23 24 25 26 >>
Time Temp. Humidity Pressure Rain* Wind** Luminosity Snow
1788366457 31.67° C 57% 1011.2 hPa - - - -
1788365857 31.67° C 58% 1011.3 hPa - - - -
1788365257 31.67° C 58% 1011.4 hPa - - - -
1788364656 31.67° C 58% 1011.6 hPa - - - -
1788364056 31.67° C 58% 1011.7 hPa - - - -
1788363456 31.67° C 59% 1011.8 hPa - - - -
1788362855 31.67° C 58% 1011.8 hPa - - - -
1788362255 31.67° C 58% 1011.8 hPa - - - -
1788361655 31.67° C 56% 1011.9 hPa - - - -
1788361054 31.67° C 55% 1012.1 hPa - - - -
1788360454 31.11° C 55% 1012.2 hPa - - - -
1788359854 31.11° C 57% 1012.4 hPa - - - -
1788359253 31.11° C 57% 1012.6 hPa - - - -
1788358653 31.11° C 58% 1012.8 hPa - - - -
1788358053 31.11° C 59% 1012.7 hPa - - - -
1788357452 31.11° C 59% 1012.7 hPa - - - -
1788356852 30.56° C 59% 1012.8 hPa - - - -
1788356252 30.56° C 59% 1013 hPa - - - -
1788355652 30.56° C 58% 1013 hPa - - - -
1788355051 30.56° C 61% 1012.9 hPa - - - -
1788354451 30.56° C 60% 1012.9 hPa - - - -
1788353851 30.56° C 60% 1012.9 hPa - - - -
1788353250 30.56° C 61% 1012.7 hPa - - - -
1788352650 30.56° C 61% 1012.5 hPa - - - -
1788352049 30.56° C 61% 1012.6 hPa - - - -

* Rain since midnight (hover to see other rain measurements)
** Current wind speed in m/s (hover to see current wind gust speed)